Weather History for Brooksville, FL

Change the Weather History Date:

Wednesday, May 15, 2013

  Actual Average Record
Temperature  
Mean Temperature 70 °F -  
Max Temperature 87 °F 86 °F 93 °F (1998)
Min Temperature 53 °F 58 °F 53 °F (1997)
Cooling Degree Days 4    
Growing Degree Days 20 (Base 50)    
Moisture  
Dew Point 54 °F    
Average Humidity 60    
Maximum Humidity 93    
Minimum Humidity 28    
Precipitation  
Precipitation 0.00 in - - ()
Sea Level Pressure  
Sea Level Pressure 30.17 in    
Wind  
Wind Speed 2 mph (East)    
Max Wind Speed 9 mph    
Max Gust Speed -    
Visibility 10 miles    
Events      
Averages and records for this station are not official NWS values.
T = Trace of Precipitation, MM = Missing Value Source: NWS Daily Summary

Daily Weather History Graph

Daily Weather History Graph

Search for Another Location

Airport:

Trip Planner

Search our weather history database for the weather conditions in past years. The results will help you decide how hot, cold, wet, or windy it might be!

Date:

Astronomy

May. 15, 2013 Rise Set
Actual Time 6:39 AM EDT 8:13 PM EDT
Civil Twilight 6:13 AM EDT 8:39 PM EDT
Nautical Twilight 5:42 AM EDT 9:10 PM EDT
Astronomical Twilight 5:10 AM EDT 9:42 PM EDT
Moon 11:09 AM EDT (5/15) 12:02 AM EDT (5/15)
Length of Visible Light 14h 25m
Length of Day
13h 34m
Waxing Crescent, 26% of the Moon is Illuminated
May 15
Waxing Crescent
May 18
First Quarter
May 25
Full
May 31
Last Quarter
Jun 8
New

Hourly Weather History & Observations

Time (EDT) Temp. Heat Index Dew Point Humidity Pressure Visibility Wind Dir Wind Speed Gust Speed Precip Events Conditions
12:53 AM 64.0 °F - 55.0 °F 73% 30.22 in 10.0 mi Calm Calm - N/A   Clear
1:53 AM 60.1 °F - 54.0 °F 80% 30.21 in 10.0 mi East 3.5 mph - N/A   Clear
2:53 AM 57.0 °F - 54.0 °F 89% 30.20 in 10.0 mi Calm Calm - N/A   Clear
3:53 AM 55.9 °F - 54.0 °F 93% 30.19 in 10.0 mi Calm Calm - N/A   Clear
4:53 AM 55.9 °F - 53.1 °F 90% 30.19 in 8.0 mi Calm Calm - N/A   Clear
5:53 AM 53.1 °F - 51.1 °F 93% 30.20 in 9.0 mi Calm Calm - N/A   Clear
6:53 AM 54.0 °F - 52.0 °F 93% 30.21 in 8.0 mi Calm Calm - N/A   Clear
7:53 AM 61.0 °F - 57.0 °F 87% 30.22 in 10.0 mi Calm Calm - N/A   Clear
8:53 AM 71.1 °F - 57.9 °F 63% 30.24 in 10.0 mi East 3.5 mph - N/A   Clear
9:53 AM 75.0 °F - 57.0 °F 53% 30.24 in 10.0 mi Variable 3.5 mph - N/A   Clear
10:53 AM 77.0 °F - 53.1 °F 43% 30.23 in 10.0 mi SE 4.6 mph - N/A   Clear
11:53 AM 81.0 °F - 52.0 °F 36% 30.23 in 10.0 mi SSE 5.8 mph - N/A   Unknown
12:53 PM 82.0 °F - 48.9 °F 31% 30.21 in 10.0 mi Calm Calm - N/A   Clear
1:53 PM 84.9 °F - 51.1 °F 31% 30.18 in 10.0 mi Calm Calm - N/A   Clear
2:53 PM 84.9 °F - 48.9 °F 29% 30.16 in 10.0 mi East 9.2 mph - N/A   Clear
3:53 PM 86.0 °F - 48.9 °F 28% 30.13 in 10.0 mi SE 8.1 mph - N/A   Clear
4:53 PM 86.0 °F - 51.1 °F 30% 30.12 in 10.0 mi East 5.8 mph - N/A   Clear
5:53 PM 84.0 °F 82.9 °F 55.0 °F 37% 30.11 in 10.0 mi Variable 3.5 mph - N/A   Clear
6:53 PM 82.0 °F 81.6 °F 55.9 °F 41% 30.09 in 10.0 mi NW 6.9 mph - N/A   Clear
7:53 PM 77.0 °F - 57.0 °F 50% 30.09 in 10.0 mi NW 6.9 mph - N/A   Clear
8:53 PM 73.0 °F - 57.9 °F 59% 30.11 in 10.0 mi NW 3.5 mph - N/A   Clear
9:53 PM 71.1 °F - 59.0 °F 66% 30.12 in 10.0 mi Calm Calm - N/A   Clear
10:53 PM 68.0 °F - 59.0 °F 73% 30.14 in 10.0 mi Calm Calm - N/A   Clear
11:53 PM 64.9 °F - 59.0 °F 81% 30.13 in 10.0 mi Calm Calm - N/A   Clear